Find Starlink 31740

NORAD ID: 59433 Int'l Des: 2024-065 Owner: SPXS Country: US Constellation: starlink operational
LEOCIRCULAR

現在のビュー

3D地球を読み込み中...

About Starlink 31740

Starlink 31740 (NORAD 59433) is a starlink constellation satellite (v2 mini) launched Apr 7, 2024 by SPXS of US. It operates in LEO, CIRCULAR orbit with a mass of 730.00 kg.

次回通過

Passes for default location (London). Set your location on the main map for personalized predictions.

高度履歴

Loading altitude history...

軌道要素

1 59433U 24065N 26263.93966030 .00001013 00000-0 41121-4 0 9994
2 59433 53.1594 95.4336 0001085 105.6416 254.4707 15.34388295138818
Epoch: Sep 20, 2026 • Age: 18 hours

現在のステータス

高度 481.9 km
遠地点 / 近地点 N/A
速度 7.62 km/s
衛星直下点 -53.22°S, 102.99°E
打ち上げ日 Apr 7, 2024
運用期間 2.4 years
タイプ internet

技術仕様

分類 Payload
質量 730.00 kg
乾燥質量 700.00 kg
長さ 0.30 m
スパン 29.00 m
形状 ? Box + pan
製造者 SPXS
バスタイプ Starlink V2M
フェーズステータス In Orbit
所有者/国 SPXS/US

Most Searched